Year,Month,Day,Hour,Minute,Value (Times are PST for temperature in C)
2007,09,13,00,00,9.90
2007,09,13,00,01,9.90
2007,09,13,00,02,9.90
2007,09,13,00,03,9.90
2007,09,13,00,04,9.90
2007,09,13,00,05,9.90
2007,09,13,00,06,9.90
2007,09,13,00,07,9.90
2007,09,13,00,08,9.90
2007,09,13,00,09,9.80
2007,09,13,00,10,9.80
2007,09,13,00,11,9.80
2007,09,13,00,12,9.80
2007,09,13,00,13,9.70
2007,09,13,00,14,9.70
2007,09,13,00,15,9.70
2007,09,13,00,16,9.70
2007,09,13,00,17,9.70
2007,09,13,00,18,9.70
2007,09,13,00,19,9.70
2007,09,13,00,20,9.60
2007,09,13,00,21,9.60
2007,09,13,00,22,9.60
2007,09,13,00,23,9.60
2007,09,13,00,24,9.60
2007,09,13,00,25,9.60
2007,09,13,00,26,9.60
2007,09,13,00,27,9.60
2007,09,13,00,28,9.60
2007,09,13,00,29,9.60
2007,09,13,00,30,9.60
2007,09,13,00,31,9.60
2007,09,13,00,32,9.60
2007,09,13,00,33,9.60
2007,09,13,00,34,9.60
2007,09,13,00,35,9.60
2007,09,13,00,36,9.60
2007,09,13,00,37,9.60
2007,09,13,00,38,9.60
2007,09,13,00,39,9.60
2007,09,13,00,40,9.60
2007,09,13,00,41,9.60
2007,09,13,00,42,9.60
2007,09,13,00,43,9.70
2007,09,13,00,44,9.60
2007,09,13,00,45,9.60
2007,09,13,00,46,9.60
2007,09,13,00,47,9.60
2007,09,13,00,48,9.60
2007,09,13,00,49,9.60
2007,09,13,00,50,9.60
2007,09,13,00,51,9.60
2007,09,13,00,52,9.50
2007,09,13,00,53,9.50
2007,09,13,00,54,9.50
2007,09,13,00,55,9.50
2007,09,13,00,56,9.50
2007,09,13,00,57,9.40
2007,09,13,00,58,9.40
2007,09,13,00,59,9.40
2007,09,13,01,00,9.40
2007,09,13,01,01,9.40
2007,09,13,01,02,9.40
2007,09,13,01,03,9.40
2007,09,13,01,04,9.40
2007,09,13,01,05,9.40
2007,09,13,01,06,9.40
2007,09,13,01,07,9.40
2007,09,13,01,08,9.30
2007,09,13,01,09,9.30
2007,09,13,01,10,9.30
2007,09,13,01,11,9.30
2007,09,13,01,12,9.30
2007,09,13,01,13,9.30
2007,09,13,01,14,9.30
2007,09,13,01,15,9.30
2007,09,13,01,16,9.30
2007,09,13,01,17,9.30
2007,09,13,01,18,9.30
2007,09,13,01,19,9.20
2007,09,13,01,20,9.20
2007,09,13,01,21,9.20
2007,09,13,01,22,9.20
2007,09,13,01,23,9.20
2007,09,13,01,24,9.20
2007,09,13,01,25,9.20
2007,09,13,01,26,9.20
2007,09,13,01,27,9.20
2007,09,13,01,28,9.20
2007,09,13,01,29,9.20
2007,09,13,01,30,9.20
2007,09,13,01,31,9.20
2007,09,13,01,32,9.20
2007,09,13,01,33,9.20
2007,09,13,01,34,9.20
2007,09,13,01,35,9.20
2007,09,13,01,36,9.20
2007,09,13,01,37,9.20
2007,09,13,01,38,9.20
2007,09,13,01,39,9.20
2007,09,13,01,40,9.20
2007,09,13,01,41,9.20
2007,09,13,01,42,9.20
2007,09,13,01,43,9.20
2007,09,13,01,44,9.20
2007,09,13,01,45,9.20
2007,09,13,01,46,9.20
2007,09,13,01,47,9.20
2007,09,13,01,48,9.20
2007,09,13,01,49,9.20
2007,09,13,01,50,9.20
2007,09,13,01,51,9.20
2007,09,13,01,52,9.20
2007,09,13,01,53,9.20
2007,09,13,01,54,9.20
2007,09,13,01,55,9.30
2007,09,13,01,56,9.30
2007,09,13,01,57,9.30
2007,09,13,01,58,9.40
2007,09,13,01,59,9.40
2007,09,13,02,00,9.40
2007,09,13,02,01,9.40
2007,09,13,02,02,9.40
2007,09,13,02,03,9.40
2007,09,13,02,04,9.40
2007,09,13,02,05,9.40
2007,09,13,02,06,9.40
2007,09,13,02,07,9.40
2007,09,13,02,08,9.40
2007,09,13,02,09,9.50
2007,09,13,02,10,9.50
2007,09,13,02,11,9.50
2007,09,13,02,12,9.50
2007,09,13,02,13,9.50
2007,09,13,02,14,9.50
2007,09,13,02,15,9.60
2007,09,13,02,16,9.60
2007,09,13,02,17,9.60
2007,09,13,02,18,9.60
2007,09,13,02,19,9.60
2007,09,13,02,20,9.60
2007,09,13,02,21,9.70
2007,09,13,02,22,9.70
2007,09,13,02,23,9.70
2007,09,13,02,24,9.70
2007,09,13,02,25,9.70
2007,09,13,02,26,9.70
2007,09,13,02,27,9.70
2007,09,13,02,28,9.70
2007,09,13,02,29,9.70
2007,09,13,02,30,9.70
2007,09,13,02,31,9.70
2007,09,13,02,32,9.70
2007,09,13,02,33,9.70
2007,09,13,02,34,9.70
2007,09,13,02,35,9.70
2007,09,13,02,36,9.70
2007,09,13,02,37,9.70
2007,09,13,02,38,9.70
2007,09,13,02,39,9.70
2007,09,13,02,40,9.80
2007,09,13,02,41,9.80
2007,09,13,02,42,9.70
2007,09,13,02,43,9.70
2007,09,13,02,44,9.70
2007,09,13,02,45,9.70
2007,09,13,02,46,9.70
2007,09,13,02,47,9.70
2007,09,13,02,48,9.70
2007,09,13,02,49,9.70
2007,09,13,02,50,9.70
2007,09,13,02,51,9.70
2007,09,13,02,52,9.70
2007,09,13,02,53,9.70
2007,09,13,02,54,9.70
2007,09,13,02,55,9.70
2007,09,13,02,56,9.70
2007,09,13,02,57,9.70
2007,09,13,02,58,9.70
2007,09,13,02,59,9.70
2007,09,13,03,00,9.70
2007,09,13,03,01,9.70
2007,09,13,03,02,9.70
2007,09,13,03,03,9.70
2007,09,13,03,04,9.60
2007,09,13,03,05,9.60
2007,09,13,03,06,9.60
2007,09,13,03,07,9.60
2007,09,13,03,08,9.60
2007,09,13,03,09,9.60
2007,09,13,03,10,9.60
2007,09,13,03,11,9.60
2007,09,13,03,12,9.60
2007,09,13,03,13,9.60
2007,09,13,03,14,9.60
2007,09,13,03,15,9.60
2007,09,13,03,16,9.60
2007,09,13,03,17,9.60
2007,09,13,03,18,9.60
2007,09,13,03,19,9.60
2007,09,13,03,20,9.60
2007,09,13,03,21,9.50
2007,09,13,03,22,9.50
2007,09,13,03,23,9.50
2007,09,13,03,24,9.50
2007,09,13,03,25,9.50
2007,09,13,03,26,9.50
2007,09,13,03,27,9.40
2007,09,13,03,28,9.40
2007,09,13,03,29,9.40
2007,09,13,03,30,9.40
2007,09,13,03,31,9.40
2007,09,13,03,32,9.40
2007,09,13,03,33,9.40
2007,09,13,03,34,9.30
2007,09,13,03,35,9.30
2007,09,13,03,36,9.30
2007,09,13,03,37,9.30
2007,09,13,03,38,9.30
2007,09,13,03,39,9.30
2007,09,13,03,40,9.30
2007,09,13,03,41,9.40
2007,09,13,03,42,9.40
2007,09,13,03,43,9.40
2007,09,13,03,44,9.40
2007,09,13,03,45,9.40
2007,09,13,03,46,9.40
2007,09,13,03,47,9.40
2007,09,13,03,48,9.40
2007,09,13,03,49,9.40
2007,09,13,03,50,9.40
2007,09,13,03,51,9.30
2007,09,13,03,52,9.30
2007,09,13,03,53,9.30
2007,09,13,03,54,9.30
2007,09,13,03,55,9.20
2007,09,13,03,56,9.20
2007,09,13,03,57,9.20
2007,09,13,03,58,9.20
2007,09,13,03,59,9.20
2007,09,13,04,00,9.20
2007,09,13,04,01,9.20
2007,09,13,04,02,9.20
2007,09,13,04,03,9.20
2007,09,13,04,04,9.20
2007,09,13,04,05,9.20
2007,09,13,04,06,9.20
2007,09,13,04,07,9.10
2007,09,13,04,08,9.10
2007,09,13,04,09,9.10
2007,09,13,04,10,9.10
2007,09,13,04,11,9.10
2007,09,13,04,12,9.10
2007,09,13,04,13,9.10
2007,09,13,04,14,9.10
2007,09,13,04,15,9.10
2007,09,13,04,16,9.10
2007,09,13,04,17,9.10
2007,09,13,04,18,9.10
2007,09,13,04,19,9.10
2007,09,13,04,20,9.10
2007,09,13,04,21,9.10
2007,09,13,04,22,9.10
2007,09,13,04,23,9.10
2007,09,13,04,24,9.10
2007,09,13,04,25,9.10
2007,09,13,04,26,9.10
2007,09,13,04,27,9.00
2007,09,13,04,28,9.00
2007,09,13,04,29,9.00
2007,09,13,04,30,9.00
2007,09,13,04,31,9.00
2007,09,13,04,32,9.00
2007,09,13,04,33,9.00
2007,09,13,04,34,9.00
2007,09,13,04,35,9.00
2007,09,13,04,36,9.00
2007,09,13,04,37,9.00
2007,09,13,04,38,8.90
2007,09,13,04,39,8.90
2007,09,13,04,40,8.90
2007,09,13,04,41,8.90
2007,09,13,04,42,8.80
2007,09,13,04,43,8.80
2007,09,13,04,44,8.80
2007,09,13,04,45,8.80
2007,09,13,04,46,8.80
2007,09,13,04,47,8.80
2007,09,13,04,48,8.80
2007,09,13,04,49,8.80
2007,09,13,04,50,8.70
2007,09,13,04,51,8.70
2007,09,13,04,52,8.70
2007,09,13,04,53,8.70
2007,09,13,04,54,8.70
2007,09,13,04,55,8.70
2007,09,13,04,56,8.70
2007,09,13,04,57,8.70
2007,09,13,04,58,8.70
2007,09,13,04,59,8.70
2007,09,13,05,00,8.70
2007,09,13,05,01,8.70
2007,09,13,05,02,8.70
2007,09,13,05,03,8.70
2007,09,13,05,04,8.60
2007,09,13,05,05,8.60
2007,09,13,05,06,8.60
2007,09,13,05,07,8.60
2007,09,13,05,08,8.60
2007,09,13,05,09,8.60
2007,09,13,05,10,8.60
2007,09,13,05,11,8.60
2007,09,13,05,12,8.60
2007,09,13,05,13,8.60
2007,09,13,05,14,8.60
2007,09,13,05,15,8.50
2007,09,13,05,16,8.50
2007,09,13,05,17,8.50
2007,09,13,05,18,8.50
2007,09,13,05,19,8.50
2007,09,13,05,20,8.50
2007,09,13,05,21,8.50
2007,09,13,05,22,8.50
2007,09,13,05,23,8.50
2007,09,13,05,24,8.50
2007,09,13,05,25,8.50
2007,09,13,05,26,8.50
2007,09,13,05,27,8.50
2007,09,13,05,28,8.50
2007,09,13,05,29,8.50
2007,09,13,05,30,8.50
2007,09,13,05,31,8.50
2007,09,13,05,32,8.50
2007,09,13,05,33,8.50
2007,09,13,05,34,8.50
2007,09,13,05,35,8.60
2007,09,13,05,36,8.60
2007,09,13,05,37,8.60
2007,09,13,05,38,8.50
2007,09,13,05,39,8.50
2007,09,13,05,40,8.50
2007,09,13,05,41,8.60
2007,09,13,05,42,8.60
2007,09,13,05,43,8.60
2007,09,13,05,44,8.60
2007,09,13,05,45,8.60
2007,09,13,05,46,8.60
2007,09,13,05,47,8.60
2007,09,13,05,48,8.60
2007,09,13,05,49,8.60
2007,09,13,05,50,8.60
2007,09,13,05,51,8.60
2007,09,13,05,52,8.60
2007,09,13,05,53,8.60
2007,09,13,05,54,8.60
2007,09,13,05,55,8.60
2007,09,13,05,56,8.60
2007,09,13,05,57,8.60
2007,09,13,05,58,8.50
2007,09,13,05,59,8.50
2007,09,13,06,00,8.50
2007,09,13,06,01,8.50
2007,09,13,06,02,8.60
2007,09,13,06,03,8.60
2007,09,13,06,04,8.60
2007,09,13,06,05,8.60
2007,09,13,06,06,8.60
2007,09,13,06,07,8.70
2007,09,13,06,08,8.70
2007,09,13,06,09,8.70
2007,09,13,06,10,8.70
2007,09,13,06,11,8.80
2007,09,13,06,12,8.80
2007,09,13,06,13,8.80
2007,09,13,06,14,8.80
2007,09,13,06,15,8.80
2007,09,13,06,16,8.80
2007,09,13,06,17,8.80
2007,09,13,06,18,8.80
2007,09,13,06,19,8.80
2007,09,13,06,20,8.80
2007,09,13,06,21,8.70
2007,09,13,06,22,8.70
2007,09,13,06,23,8.70
2007,09,13,06,24,8.70
2007,09,13,06,25,8.70
2007,09,13,06,26,8.70
2007,09,13,06,27,8.70
2007,09,13,06,28,8.70
2007,09,13,06,29,8.80
2007,09,13,06,30,8.80
2007,09,13,06,31,8.80
2007,09,13,06,32,8.80
2007,09,13,06,33,8.80
2007,09,13,06,34,8.80
2007,09,13,06,35,8.80
2007,09,13,06,36,8.80
2007,09,13,06,37,8.80
2007,09,13,06,38,8.90
2007,09,13,06,39,8.90
2007,09,13,06,40,8.90
2007,09,13,06,41,9.00
2007,09,13,06,42,9.00
2007,09,13,06,43,9.00
2007,09,13,06,44,9.10
2007,09,13,06,45,9.10
2007,09,13,06,46,9.10
2007,09,13,06,47,9.10
2007,09,13,06,48,9.10
2007,09,13,06,49,9.20
2007,09,13,06,50,9.20
2007,09,13,06,51,9.20
2007,09,13,06,52,9.10
2007,09,13,06,53,9.10
2007,09,13,06,54,9.10
2007,09,13,06,55,9.10
2007,09,13,06,56,9.10
2007,09,13,06,57,9.10
2007,09,13,06,58,9.10
2007,09,13,06,59,9.10
2007,09,13,07,00,9.10
2007,09,13,07,01,9.10
2007,09,13,07,02,9.10
2007,09,13,07,03,9.10
2007,09,13,07,04,9.20
2007,09,13,07,05,9.30
2007,09,13,07,06,9.40
2007,09,13,07,07,9.50
2007,09,13,07,08,9.50
2007,09,13,07,09,9.60
2007,09,13,07,10,9.60
2007,09,13,07,11,9.70
2007,09,13,07,12,9.70
2007,09,13,07,13,9.70
2007,09,13,07,14,9.70
2007,09,13,07,15,9.70
2007,09,13,07,16,9.70
2007,09,13,07,17,9.70
2007,09,13,07,18,9.70
2007,09,13,07,19,9.80
2007,09,13,07,20,9.80
2007,09,13,07,21,9.80
2007,09,13,07,22,9.90
2007,09,13,07,23,9.90
2007,09,13,07,24,9.90
2007,09,13,07,25,9.90
2007,09,13,07,26,9.90
2007,09,13,07,27,9.90
2007,09,13,07,28,9.80
2007,09,13,07,29,9.80
2007,09,13,07,30,9.80
2007,09,13,07,31,9.80
2007,09,13,07,32,9.80
2007,09,13,07,33,9.80
2007,09,13,07,34,9.80
2007,09,13,07,35,9.80
2007,09,13,07,36,9.80
2007,09,13,07,37,9.90
2007,09,13,07,38,9.90
2007,09,13,07,39,9.90
2007,09,13,07,40,9.90
2007,09,13,07,41,9.90
2007,09,13,07,42,10.00
2007,09,13,07,43,10.10
2007,09,13,07,44,10.10
2007,09,13,07,45,10.20
2007,09,13,07,46,10.30
2007,09,13,07,47,10.30
2007,09,13,07,48,10.40
2007,09,13,07,49,10.40
2007,09,13,07,50,10.50
2007,09,13,07,51,10.60
2007,09,13,07,52,10.70
2007,09,13,07,53,10.80
2007,09,13,07,54,10.90
2007,09,13,07,55,10.90
2007,09,13,07,56,11.10
2007,09,13,07,57,11.10
2007,09,13,07,58,11.10
2007,09,13,07,59,11.10
2007,09,13,08,00,11.00
2007,09,13,08,01,10.90
2007,09,13,08,02,10.90
2007,09,13,08,03,10.80
2007,09,13,08,04,10.70
2007,09,13,08,05,10.70
2007,09,13,08,06,10.70
2007,09,13,08,07,10.70
2007,09,13,08,08,10.70
2007,09,13,08,09,10.70
2007,09,13,08,10,10.70
2007,09,13,08,11,10.70
2007,09,13,08,12,10.80
2007,09,13,08,13,10.80
2007,09,13,08,14,10.80
2007,09,13,08,15,10.80
2007,09,13,08,16,10.90
2007,09,13,08,17,11.00
2007,09,13,08,18,11.10
2007,09,13,08,19,11.30
2007,09,13,08,20,11.40
2007,09,13,08,21,11.50
2007,09,13,08,22,11.60
2007,09,13,08,23,11.70
2007,09,13,08,24,11.80
2007,09,13,08,25,11.80
2007,09,13,08,26,11.80
2007,09,13,08,27,11.80
2007,09,13,08,28,11.70
2007,09,13,08,29,11.60
2007,09,13,08,30,11.50
2007,09,13,08,31,11.30
2007,09,13,08,32,11.20
2007,09,13,08,33,11.20
2007,09,13,08,34,11.10
2007,09,13,08,35,11.10
2007,09,13,08,36,11.00
2007,09,13,08,37,10.90
2007,09,13,08,38,10.80
2007,09,13,08,39,10.70
2007,09,13,08,40,10.60
2007,09,13,08,41,10.60
2007,09,13,08,42,10.60
2007,09,13,08,43,10.60
2007,09,13,08,44,10.60
2007,09,13,08,45,10.60
2007,09,13,08,46,10.60
2007,09,13,08,47,10.70
2007,09,13,08,48,10.70
2007,09,13,08,49,10.80
2007,09,13,08,50,10.80
2007,09,13,08,51,10.90
2007,09,13,08,52,10.90
2007,09,13,08,53,10.90
2007,09,13,08,54,11.10
2007,09,13,08,55,11.10
2007,09,13,08,56,11.20
2007,09,13,08,57,11.30
2007,09,13,08,58,11.40
2007,09,13,08,59,11.40
2007,09,13,09,00,11.60
2007,09,13,09,01,11.80
2007,09,13,09,02,11.80
2007,09,13,09,03,11.90
2007,09,13,09,04,12.10
2007,09,13,09,05,12.20
2007,09,13,09,06,12.30
2007,09,13,09,07,12.40
2007,09,13,09,08,12.50
2007,09,13,09,09,12.60
2007,09,13,09,10,12.60
2007,09,13,09,11,12.60
2007,09,13,09,12,12.60
2007,09,13,09,13,12.60
2007,09,13,09,14,12.70
2007,09,13,09,15,12.70
2007,09,13,09,16,12.70
2007,09,13,09,17,12.70
2007,09,13,09,18,12.70
2007,09,13,09,19,12.60
2007,09,13,09,20,12.60
2007,09,13,09,21,12.60
2007,09,13,09,22,12.70
2007,09,13,09,23,12.70
2007,09,13,09,24,12.70
2007,09,13,09,25,12.80
2007,09,13,09,26,12.80
2007,09,13,09,27,12.80
2007,09,13,09,28,12.80
2007,09,13,09,29,12.90
2007,09,13,09,30,12.90
2007,09,13,09,31,13.00
2007,09,13,09,32,13.00
2007,09,13,09,33,13.00
2007,09,13,09,34,13.10
2007,09,13,09,35,13.20
2007,09,13,09,36,13.20
2007,09,13,09,37,13.20
2007,09,13,09,38,13.20
2007,09,13,09,39,13.20
2007,09,13,09,40,13.20
2007,09,13,09,41,13.20
2007,09,13,09,42,13.30
2007,09,13,09,43,13.30
2007,09,13,09,44,13.20
2007,09,13,09,45,13.20
2007,09,13,09,46,13.20
2007,09,13,09,47,13.20
2007,09,13,09,48,13.30
2007,09,13,09,49,13.30
2007,09,13,09,50,13.30
2007,09,13,09,51,13.30
2007,09,13,09,52,13.30
2007,09,13,09,53,13.30
2007,09,13,09,54,13.30
2007,09,13,09,55,13.40
2007,09,13,09,56,13.40
2007,09,13,09,57,13.50
2007,09,13,09,58,13.50
2007,09,13,09,59,13.50
2007,09,13,10,00,13.60
2007,09,13,10,01,13.60
2007,09,13,10,02,13.60
2007,09,13,10,03,13.60
2007,09,13,10,04,13.70
2007,09,13,10,05,13.70
2007,09,13,10,06,13.70
2007,09,13,10,07,13.80
2007,09,13,10,08,13.80
2007,09,13,10,09,13.90
2007,09,13,10,10,14.00
2007,09,13,10,11,14.00
2007,09,13,10,12,14.00
2007,09,13,10,13,14.00
2007,09,13,10,14,13.90
2007,09,13,10,15,13.90
2007,09,13,10,16,13.90
2007,09,13,10,17,14.00
2007,09,13,10,18,14.00
2007,09,13,10,19,14.00
2007,09,13,10,20,14.00
2007,09,13,10,21,14.00
2007,09,13,10,22,14.00
2007,09,13,10,23,14.00
2007,09,13,10,24,14.00
2007,09,13,10,25,14.10
2007,09,13,10,26,14.10
2007,09,13,10,27,14.10
2007,09,13,10,28,14.10
2007,09,13,10,29,14.10
2007,09,13,10,30,14.10
2007,09,13,10,31,14.20
2007,09,13,10,32,14.20
2007,09,13,10,33,14.20
2007,09,13,10,34,14.20
2007,09,13,10,35,14.20
2007,09,13,10,36,14.20
2007,09,13,10,37,14.30
2007,09,13,10,38,14.30
2007,09,13,10,39,14.40
2007,09,13,10,40,14.40
2007,09,13,10,41,14.40
2007,09,13,10,42,14.50
2007,09,13,10,43,14.50
2007,09,13,10,44,14.50
2007,09,13,10,45,14.50
2007,09,13,10,46,14.40
2007,09,13,10,47,14.40
2007,09,13,10,48,14.50
2007,09,13,10,49,14.50
2007,09,13,10,50,14.50
2007,09,13,10,51,14.50
2007,09,13,10,52,14.50
2007,09,13,10,53,14.50
2007,09,13,10,54,14.40
2007,09,13,10,55,14.50
2007,09,13,10,56,14.50
2007,09,13,10,57,14.50
2007,09,13,10,58,14.50
2007,09,13,10,59,14.50
2007,09,13,11,00,14.50
2007,09,13,11,01,14.50
2007,09,13,11,02,14.50
2007,09,13,11,03,14.50
2007,09,13,11,04,14.40
2007,09,13,11,05,14.40
2007,09,13,11,06,14.30
2007,09,13,11,07,14.30
2007,09,13,11,08,14.20
2007,09,13,11,09,14.20
2007,09,13,11,10,14.30
2007,09,13,11,11,14.30
2007,09,13,11,12,14.40
2007,09,13,11,13,14.50
2007,09,13,11,14,14.50
2007,09,13,11,15,14.60
2007,09,13,11,16,14.70
2007,09,13,11,17,14.70
2007,09,13,11,18,14.70
2007,09,13,11,19,14.80
2007,09,13,11,20,14.80
2007,09,13,11,21,14.80
2007,09,13,11,22,14.80
2007,09,13,11,23,15.00
2007,09,13,11,24,15.00
2007,09,13,11,25,15.10
2007,09,13,11,26,15.30
2007,09,13,11,27,15.30
2007,09,13,11,28,15.40
2007,09,13,11,29,15.50
2007,09,13,11,30,15.60
2007,09,13,11,31,15.70
2007,09,13,11,32,15.70
2007,09,13,11,33,15.70
2007,09,13,11,34,15.80
2007,09,13,11,35,15.80
2007,09,13,11,36,15.90
2007,09,13,11,37,15.90
2007,09,13,11,38,15.90
2007,09,13,11,39,15.90
2007,09,13,11,40,15.90
2007,09,13,11,41,15.90
2007,09,13,11,42,16.00
2007,09,13,11,43,16.10
2007,09,13,11,44,16.10
2007,09,13,11,45,16.10
2007,09,13,11,46,16.10
2007,09,13,11,47,16.10
2007,09,13,11,48,16.10
2007,09,13,11,49,16.20
2007,09,13,11,50,16.20
2007,09,13,11,51,16.30
2007,09,13,11,52,16.30
2007,09,13,11,53,16.30
2007,09,13,11,54,16.40
2007,09,13,11,55,16.40
2007,09,13,11,56,16.40
2007,09,13,11,57,16.40
2007,09,13,11,58,16.40
2007,09,13,11,59,16.40
2007,09,13,12,00,16.40
2007,09,13,12,01,16.40
2007,09,13,12,02,16.40
2007,09,13,12,03,16.40
2007,09,13,12,04,16.50
2007,09,13,12,05,16.60
2007,09,13,12,06,16.60
2007,09,13,12,07,16.70
2007,09,13,12,08,16.70
2007,09,13,12,09,16.80
2007,09,13,12,10,16.90
2007,09,13,12,11,16.90
2007,09,13,12,12,16.90
2007,09,13,12,13,17.00
2007,09,13,12,14,17.00
2007,09,13,12,15,17.10
2007,09,13,12,16,17.10
2007,09,13,12,17,17.10
2007,09,13,12,18,17.20
2007,09,13,12,19,17.20
2007,09,13,12,20,17.10
2007,09,13,12,21,17.10
2007,09,13,12,22,17.10
2007,09,13,12,23,17.20
2007,09,13,12,24,17.30
2007,09,13,12,25,17.40
2007,09,13,12,26,17.40
2007,09,13,12,27,17.40
2007,09,13,12,28,17.40
2007,09,13,12,29,17.40
2007,09,13,12,30,17.40
2007,09,13,12,31,17.30
2007,09,13,12,32,17.00
2007,09,13,12,33,16.80
2007,09,13,12,34,16.60
2007,09,13,12,35,16.50
2007,09,13,12,36,16.40
2007,09,13,12,37,16.30
2007,09,13,12,38,16.40
2007,09,13,12,39,16.40
2007,09,13,12,40,16.40
2007,09,13,12,41,16.40
2007,09,13,12,42,16.50
2007,09,13,12,43,16.60
2007,09,13,12,44,16.60
2007,09,13,12,45,16.70
2007,09,13,12,46,16.70
2007,09,13,12,47,16.70
2007,09,13,12,48,16.80
2007,09,13,12,49,17.00
2007,09,13,12,50,17.10
2007,09,13,12,51,17.10
2007,09,13,12,52,17.10
2007,09,13,12,53,17.10
2007,09,13,12,54,17.00
2007,09,13,12,55,16.90
2007,09,13,12,56,16.90
2007,09,13,12,57,16.90
2007,09,13,12,58,16.90
2007,09,13,12,59,16.90
2007,09,13,13,00,17.00
2007,09,13,13,01,16.90
2007,09,13,13,02,17.00
2007,09,13,13,03,17.10
2007,09,13,13,04,17.30
2007,09,13,13,05,17.40
2007,09,13,13,06,17.50
2007,09,13,13,07,17.60
2007,09,13,13,08,17.50
2007,09,13,13,09,17.40
2007,09,13,13,10,17.30
2007,09,13,13,11,17.20
2007,09,13,13,12,17.10
2007,09,13,13,13,17.10
2007,09,13,13,14,17.00
2007,09,13,13,15,16.90
2007,09,13,13,16,16.90
2007,09,13,13,17,16.80
2007,09,13,13,18,16.80
2007,09,13,13,19,16.90
2007,09,13,13,20,16.90
2007,09,13,13,21,16.90
2007,09,13,13,22,16.90
2007,09,13,13,23,17.00
2007,09,13,13,24,17.00
2007,09,13,13,25,17.20
2007,09,13,13,26,17.30
2007,09,13,13,27,17.30
2007,09,13,13,28,17.40
2007,09,13,13,29,17.50
2007,09,13,13,30,17.60
2007,09,13,13,31,17.80
2007,09,13,13,32,17.90
2007,09,13,13,33,17.90
2007,09,13,13,34,18.10
2007,09,13,13,35,18.20
2007,09,13,13,36,18.20
2007,09,13,13,37,18.30
2007,09,13,13,38,18.30
2007,09,13,13,39,18.40
2007,09,13,13,40,18.40
2007,09,13,13,41,18.40
2007,09,13,13,42,18.40
2007,09,13,13,43,18.40
2007,09,13,13,44,18.40
2007,09,13,13,45,18.20
2007,09,13,13,46,18.00
2007,09,13,13,47,17.90
2007,09,13,13,48,17.90
2007,09,13,13,49,17.90
2007,09,13,13,50,17.90
2007,09,13,13,51,17.80
2007,09,13,13,52,17.80
2007,09,13,13,53,17.80
2007,09,13,13,54,17.80
2007,09,13,13,55,17.80
2007,09,13,13,56,17.80
2007,09,13,13,57,17.80
2007,09,13,13,58,17.70
2007,09,13,13,59,17.70
2007,09,13,14,00,17.70
2007,09,13,14,01,17.70
2007,09,13,14,02,17.60
2007,09,13,14,03,17.50
2007,09,13,14,04,17.30
2007,09,13,14,05,17.30
2007,09,13,14,06,17.20
2007,09,13,14,07,17.00
2007,09,13,14,08,16.90
2007,09,13,14,09,16.90
2007,09,13,14,10,16.90
2007,09,13,14,11,16.90
2007,09,13,14,12,16.90
2007,09,13,14,13,17.00
2007,09,13,14,14,16.90
2007,09,13,14,15,16.90
2007,09,13,14,16,16.80
2007,09,13,14,17,16.80
2007,09,13,14,18,16.90
2007,09,13,14,19,17.00
2007,09,13,14,20,17.10
2007,09,13,14,21,17.10
2007,09,13,14,22,17.10
2007,09,13,14,23,17.30
2007,09,13,14,24,17.40
2007,09,13,14,25,17.50
2007,09,13,14,26,17.60
2007,09,13,14,27,17.70
2007,09,13,14,28,17.60
2007,09,13,14,29,17.60
2007,09,13,14,30,17.70
2007,09,13,14,31,17.80
2007,09,13,14,32,17.90
2007,09,13,14,33,17.90
2007,09,13,14,34,17.90
2007,09,13,14,35,17.90
2007,09,13,14,36,18.00
2007,09,13,14,37,18.10
2007,09,13,14,38,18.00
2007,09,13,14,39,17.90
2007,09,13,14,40,17.90
2007,09,13,14,41,17.90
2007,09,13,14,42,18.00
2007,09,13,14,43,17.90
2007,09,13,14,44,17.90
2007,09,13,14,45,17.90
2007,09,13,14,46,18.00
2007,09,13,14,47,18.10
2007,09,13,14,48,18.20
2007,09,13,14,49,18.30
2007,09,13,14,50,18.30
2007,09,13,14,51,18.30
2007,09,13,14,52,18.40
2007,09,13,14,53,18.50
2007,09,13,14,54,18.50
2007,09,13,14,55,18.60
2007,09,13,14,56,18.70
2007,09,13,14,57,18.80
2007,09,13,14,58,18.90
2007,09,13,14,59,18.90
2007,09,13,15,00,19.10
2007,09,13,15,01,19.10
2007,09,13,15,02,19.20
2007,09,13,15,03,19.40
2007,09,13,15,04,19.60
2007,09,13,15,05,19.70
2007,09,13,15,06,19.90
2007,09,13,15,07,19.90
2007,09,13,15,08,19.90
2007,09,13,15,09,19.90
2007,09,13,15,10,20.00
2007,09,13,15,11,20.10
2007,09,13,15,12,20.20
2007,09,13,15,13,20.20
2007,09,13,15,14,20.20
2007,09,13,15,15,20.10
2007,09,13,15,16,19.90
2007,09,13,15,17,19.80
2007,09,13,15,18,19.70
2007,09,13,15,19,19.70
2007,09,13,15,20,19.70
2007,09,13,15,21,19.60
2007,09,13,15,22,19.60
2007,09,13,15,23,19.60
2007,09,13,15,24,19.60
2007,09,13,15,25,19.50
2007,09,13,15,26,19.50
2007,09,13,15,27,19.50
2007,09,13,15,28,19.50
2007,09,13,15,29,19.50
2007,09,13,15,30,19.60
2007,09,13,15,31,19.60
2007,09,13,15,32,19.70
2007,09,13,15,33,19.70
2007,09,13,15,34,19.70
2007,09,13,15,35,19.70
2007,09,13,15,36,19.80
2007,09,13,15,37,19.80
2007,09,13,15,38,19.90
2007,09,13,15,39,19.90
2007,09,13,15,40,19.90
2007,09,13,15,41,19.90
2007,09,13,15,42,19.90
2007,09,13,15,43,19.90
2007,09,13,15,44,20.00
2007,09,13,15,45,20.20
2007,09,13,15,46,20.20
2007,09,13,15,47,20.20
2007,09,13,15,48,20.20
2007,09,13,15,49,20.20
2007,09,13,15,50,20.10
2007,09,13,15,51,20.10
2007,09,13,15,52,20.10
2007,09,13,15,53,20.10
2007,09,13,15,54,20.20
2007,09,13,15,55,20.20
2007,09,13,15,56,20.20
2007,09,13,15,57,20.30
2007,09,13,15,58,20.40
2007,09,13,15,59,20.50
2007,09,13,16,00,20.60
2007,09,13,16,01,20.70
2007,09,13,16,02,20.70
2007,09,13,16,03,20.70
2007,09,13,16,04,20.70
2007,09,13,16,05,20.80
2007,09,13,16,06,20.80
2007,09,13,16,07,20.90
2007,09,13,16,08,20.90
2007,09,13,16,09,20.90
2007,09,13,16,10,20.80
2007,09,13,16,11,20.80
2007,09,13,16,12,20.80
2007,09,13,16,13,20.80
2007,09,13,16,14,20.90
2007,09,13,16,15,21.00
2007,09,13,16,16,21.10
2007,09,13,16,17,21.20
2007,09,13,16,18,21.20
2007,09,13,16,19,21.20
2007,09,13,16,20,21.10
2007,09,13,16,21,21.10
2007,09,13,16,22,21.00
2007,09,13,16,23,21.00
2007,09,13,16,24,21.10
2007,09,13,16,25,21.10
2007,09,13,16,26,21.20
2007,09,13,16,27,21.10
2007,09,13,16,28,21.10
2007,09,13,16,29,21.10
2007,09,13,16,30,21.10
2007,09,13,16,31,21.30
2007,09,13,16,32,21.40
2007,09,13,16,33,21.60
2007,09,13,16,34,21.70
2007,09,13,16,35,21.70
2007,09,13,16,36,21.70
2007,09,13,16,37,21.70
2007,09,13,16,38,21.70
2007,09,13,16,39,21.80
2007,09,13,16,40,21.90
2007,09,13,16,41,22.00
2007,09,13,16,42,22.00
2007,09,13,16,43,22.00
2007,09,13,16,44,22.10
2007,09,13,16,45,22.20
2007,09,13,16,46,22.20
2007,09,13,16,47,22.30
2007,09,13,16,48,22.30
2007,09,13,16,49,22.40
2007,09,13,16,50,22.30
2007,09,13,16,51,22.20
2007,09,13,16,52,22.10
2007,09,13,16,53,22.10
2007,09,13,16,54,22.00
2007,09,13,16,55,22.00
2007,09,13,16,56,21.90
2007,09,13,16,57,21.90
2007,09,13,16,58,21.90
2007,09,13,16,59,21.90
2007,09,13,17,00,21.90
2007,09,13,17,01,21.90
2007,09,13,17,02,21.90
2007,09,13,17,03,21.90
2007,09,13,17,04,21.80
2007,09,13,17,05,21.80
2007,09,13,17,06,21.80
2007,09,13,17,07,21.80
2007,09,13,17,08,21.90
2007,09,13,17,09,21.90
2007,09,13,17,10,21.90
2007,09,13,17,11,21.90
2007,09,13,17,12,21.90
2007,09,13,17,13,21.90
2007,09,13,17,14,21.80
2007,09,13,17,15,21.90
2007,09,13,17,16,21.90
2007,09,13,17,17,21.90
2007,09,13,17,18,21.90
2007,09,13,17,19,21.80
2007,09,13,17,20,21.80
2007,09,13,17,21,21.70
2007,09,13,17,22,21.60
2007,09,13,17,23,21.60
2007,09,13,17,24,21.60
2007,09,13,17,25,21.60
2007,09,13,17,26,21.60
2007,09,13,17,27,21.60
2007,09,13,17,28,21.60
2007,09,13,17,29,21.60
2007,09,13,17,30,21.60
2007,09,13,17,31,21.70
2007,09,13,17,32,21.70
2007,09,13,17,33,21.70
2007,09,13,17,34,21.70
2007,09,13,17,35,21.70
2007,09,13,17,36,21.60
2007,09,13,17,37,21.60
2007,09,13,17,38,21.60
2007,09,13,17,39,21.60